Skip Page Navigation
NASA JPL Caltech
NASA Logo - Jet Propulsion Laboratory + View the NASA Portal
+ Center for Near-Earth Object Studies
JPL Home Earth Solar System Stars & Galaxies Technology
JPL Solar System Dynamics
BODIES ORBITS EPHEMERIDES TOOLS PHYSICAL DATA DISCOVERY FAQ SITE MAP
JPL Small-Body Database Browser
Search: [ help ]  
86300 (1999 VU33)
Classification: Main-belt Asteroid          SPK-ID: 2086300
Ephemeris | Orbit Diagram | Orbital Elements | Mission Design | Physical Parameters | Discovery Circumstances | Close-Approach Data ]

[ hide orbit diagram ]

For accurate long-term ephemerides, please instead use our Horizons system.This orbit viewer was implemented using two-body methods, and hence should not be used for determining accurate long-term trajectories (over several years or decades) or planetary encounter circumstances.


[ revert to old Java-based viewer ]

Orbital Elements at Epoch 2459000.5 (2020-May-31.0) TDB
Reference: JPL 19 (heliocentric ecliptic J2000)
 Element Value Uncertainty (1-sigma)   Units 
e .1250167118220272 3.9297e-08  
a 3.023516914925526 1.8168e-08 au
q 2.645526772083257 1.2358e-07 au
i 4.815605282446379 4.2583e-06 deg
node 227.8881395054987 5.3338e-05 deg
peri 200.5778295323785 5.6381e-05 deg
M 318.3028972268683 1.8736e-05 deg
tp 2459222.918245230798
(2021-Jan-08.41824523)
0.00010045 TDB
period 1920.290930493188
5.26
1.7308e-05
4.739e-08
d
yr
n .1874715931234134 1.6898e-09 deg/d
Q 3.401507057767795 2.044e-08 au
  Orbit Determination Parameters
   # obs. used (total)      659  
   data-arc span      15306 days (41.91 yr)  
   first obs. used      1978-11-29  
   last obs. used      2020-10-25  
   planetary ephem.      DE431  
   SB-pert. ephem.      SB431-N16  
   condition code      0  
   norm. resid. RMS      .56867  
   source      ORB  
   producer      Otto Matic  
   solution date      2020-Nov-12 20:57:48  

Additional Information
 Earth MOID = 1.66018 au 
 Jupiter MOID = 1.89368 au 
 T_jup = 3.228 
[ show covariance matrix ]

Ephemeris | Orbit Diagram | Orbital Elements | Mission Design | Physical Parameters | Discovery Circumstances | Close-Approach Data ]

Physical Parameter Table
Parameter Symbol Value Units Sigma Reference Notes
absolute magnitude H 14.7   n/a MPO449536  

86300 (1999 VU33)          Discovered 1999-Nov-03 by LINEAR at Socorro
Reference: 20040830/Numbers.arcLast Updated: 2004-09-06

[ hide close-approach data ]
Close-Approach Data   ...sorted by Date/Time (TDB)
Date/Time (TDB) Time Uncertainty
(days_HH:MM)
Body Nominal Distance (au) Minimum Distance (au) Maximum Distance (au) V-relative (km/s) V-infinity (km/s) JD (TDB) Time Uncertainty (minutes) Semi-major axis (km) Semi-minor axis (km) range-LOV angle (deg) N-sigma BP Orbit Ref. Reference Modified
1914-Jan-26 09:01 00:03 Jupiter 1.95394941304365 1.95394872329864 1.95395010278911 2.91516056624571 2.76245832995991 2420158.876004659 2.88241554064814 90.8840253499156 17.9033086832734 82.4344968638307 2683797.96571911 T 19 CATAB v2.0f-lin.ifort 2020-Nov-12 20:57:50 2020-Nov-12 20:57
1961-Apr-20 04:46 00:02 Jupiter 1.93000694831051 1.93000646662116 1.93000742999986 2.78541839676248 2.62313081361393 2437409.698893304 1.56622967769965 55.8326337443981 15.8194911658619 89.3529929905128 2881092.47735058 T 19 CATAB v2.0f-lin.ifort 2020-Nov-12 20:57:50 2020-Nov-12 20:57
2008-Jul-12 22:30 < 00:01 Jupiter 1.91481424522932 1.91481384121078 1.91481464924786 2.70317372254909 2.5342540406538 2454660.437751586 0.30036144721568 49.4369732925437 13.299164378345 -85.7368725180869 3202434.71937722 T 19 CATAB v2.0f-lin.ifort 2020-Nov-12 20:57:50 2020-Nov-12 20:57
2055-Oct-07 00:21 00:01 Jupiter 1.90939260225706 1.90939221136684 1.90939299314717 2.66176528624749 2.48953363592204 2471912.514808859 1.11682074108538 50.3931377260592 12.9167701633003 -86.1758886809327 3195463.25523014 T 19 CATAB v2.0f-lin.ifort 2020-Nov-12 20:57:50 2020-Nov-12 20:57
2103-Jan-01 10:26 00:02 Jupiter 1.90365838873187 1.90365801134365 1.90365876611999 2.63487684192175 2.46022087968239 2489164.934867866 2.4231806221674 58.4661475499962 12.8873217727239 -87.9167908506813 3214882.6238157 T 19 CATAB v2.0f-lin.ifort 2020-Nov-12 20:57:50 2020-Nov-12 20:57
2150-Mar-28 06:11 00:04 Jupiter 1.90148909424157 1.90148867070952 1.90148951777374 2.63010749045307 2.45490549615071 2506417.757645781 3.73262219259585 93.8744499854449 13.5624989306941 87.4344220388747 2995244.57238917 T 19 CATAB v2.0f-lin.ifort 2020-Nov-12 20:57:50 2020-Nov-12 20:57
2197-Jun-21 23:56 00:05 Jupiter 1.91272657325945 1.91272589450632 1.91272725201519 2.66396579750983 2.49219652424144 2523670.497030490 5.03757706844386 156.017523892079 14.2496796854915 83.8430051468943 2864926.08851226 T 19 CATAB v2.0f-lin.ifort 2020-Nov-12 20:57:50 2020-Nov-12 20:57

Alternate Designations
 1999 VU33 = 1978 WL3 
Ephemeris | Orbit Diagram | Orbital Elements | Mission Design | Physical Parameters | Discovery Circumstances | Close-Approach Data ]
ABOUT SSD CREDITS/AWARDS PRIVACY/COPYRIGHT GLOSSARY LINKS
FirstGov 2020-Dec-03 05:34 UT
(server date/time)  
NASA Home Page
Site Manager:   Ryan S. Park
Webmaster  Alan B. Chamberlin